This demonstration page uses our WeatherBlox Daily Observations layout. Learn more.

Left ArrowRight Arrow

Hourly Observations for November 1, 2019

Temp ( °F °C ) Dew Point ( °F °C ) Humidity (%) Winds ( mph kmh ) Pressure ( in mb ) Visibility ( mi km ) Precip ( " mm )
12:56 am 00:56 Clear 31 -0.6 24 -4.4 76 76 WSW 7 11 30.13 1020 10 16 0.00 0.00
1:56 am 01:56 Clear 31 -0.6 24 -4.4 76 76 WSW 8 13 30.12 1020 10 16 0.00 0.00
2:56 am 02:56 Clear 34 1.1 23 -5 64 64 W 9 15 30.12 1020 10 16 0.00 0.00
3:56 am 03:56 Clear 33 0.6 24 -4.4 70 70 NW 8 13 30.13 1020 10 16 0.00 0.00
4:56 am 04:56 Mostly Clear 33 0.6 24 -4.4 70 70 NW 9 15 30.14 1021 10 16 0.00 0.00
5:56 am 05:56 Mostly Clear 34 1.1 23 -5 64 64 NNW 10 17 30.17 1022 10 16 0.00 0.00
6:56 am 06:56 Cloudy 35 1.7 24 -4.4 64 64 NNW 10 17 30.19 1023 10 16 0.00 0.00
7:56 am 07:56 Mostly Clear 37 2.8 25 -3.9 62 62 NNW 10 17 30.20 1023 10 16 0.00 0.00
8:56 am 08:56 Partly Cloudy 39 3.9 27 -2.8 62 62 NNW 10 17 30.23 1024 10 16 0.00 0.00
9:56 am 09:56 Partly Cloudy 40 4.4 30 -1.1 68 68 NW 9 15 30.26 1025 10 16 0.00 0.00
10:56 am 10:56 Mostly Cloudy 41 5 31 -0.6 67 67 NW 13 20 30.29 1026 10 16 0.00 0.00
11:56 am 11:56 Sunny 42 5.6 30 -1.1 62 62 NNW 15 24 30.29 1026 10 16 0.00 0.00
12:56 pm 12:56 Mostly Sunny 47 8.3 29 -1.7 50 50 NNW 18 30 30.29 1026 10 16 0.00 0.00
1:56 pm 13:56 Mostly Cloudy 48 8.9 28 -2.2 46 46 NNW 20 31 30.27 1025 10 16 0.00 0.00
2:56 pm 14:56 Mostly Cloudy 47 8.3 28 -2.2 48 48 NW 16 26 30.27 1025 10 16 0.00 0.00
3:56 pm 15:56 Cloudy 47 8.3 27 -2.8 46 46 NNW 17 28 30.28 1025 10 16 0.00 0.00
4:56 pm 16:56 Partly Cloudy 48 8.9 24 -4.4 39 39 N 16 26 30.29 1026 10 16 0.00 0.00
5:56 pm 17:56 Mostly Cloudy 47 8.3 24 -4.4 41 41 NNW 15 24 30.30 1026 10 16 0.00 0.00
6:56 pm 18:56 Cloudy 43 6.1 25 -3.9 49 49 WNW 9 15 30.34 1027 10 16 0.00 0.00
7:56 pm 19:56 Clear 38 3.3 25 -3.9 60 60 NW 9 15 30.37 1028 10 16 0.00 0.00
8:56 pm 20:56 Clear 36 2.2 24 -4.4 62 62 NW 7 11 30.39 1029 10 16 0.00 0.00
9:56 pm 21:56 Clear 29 -1.7 23 -5 78 78 WNW 7 11 30.41 1030 10 16 0.00 0.00
10:56 pm 22:56 Clear 30 -1.1 25 -3.9 82 82 W 5 7 30.42 1030 10 16 0.00 0.00
11:56 pm 23:56 Clear 28 -2.2 23 -5 81 81 WNW 8 13 30.42 1030 10 16 0.00 0.00

Powered by AerisWeather